Time,TemperatureF,DewpointF,PressureIn,WindDirection,WindDirectionDegrees,WindSpeedMPH,WindSpeedGustMPH,Humidity,HourlyPrecipIn,Conditions,Clouds,dailyrainin,SoftwareType,DateUTC
2013-06-30 00:00:00,70.8,70.5,29.63,WSW,252,0.0,0.0,99,0.00,,,0.00,Wunderground v.1.15,2013-06-30 04:00:00,
2013-06-30 00:10:00,70.9,70.6,29.63,WSW,252,0.0,0.0,99,0.00,,,0.00,Wunderground v.1.15,2013-06-30 04:10:00,
2013-06-30 00:15:00,71.0,70.7,29.63,WSW,252,0.0,0.0,99,0.00,,,0.00,Wunderground v.1.15,2013-06-30 04:15:00,
2013-06-30 00:25:00,71.0,70.7,29.63,WSW,253,0.0,0.0,99,0.00,,,0.00,Wunderground v.1.15,2013-06-30 04:25:00,
2013-06-30 00:30:00,71.1,70.8,29.63,WSW,253,0.0,0.0,99,0.00,,,0.00,Wunderground v.1.15,2013-06-30 04:30:00,
2013-06-30 00:35:00,71.1,70.8,29.63,WSW,253,0.0,0.0,99,0.00,,,0.00,Wunderground v.1.15,2013-06-30 04:35:00,
2013-06-30 00:45:00,71.1,70.8,29.64,WSW,253,0.0,0.0,99,0.00,,,0.00,Wunderground v.1.15,2013-06-30 04:45:00,
2013-06-30 00:50:00,71.1,70.8,29.64,WSW,253,0.0,0.0,99,0.00,,,0.00,Wunderground v.1.15,2013-06-30 04:50:00,
2013-06-30 00:55:00,71.2,70.9,29.64,WSW,253,0.0,0.0,99,0.00,,,0.00,Wunderground v.1.15,2013-06-30 04:55:00,
2013-06-30 01:00:00,71.2,70.9,29.64,WSW,253,0.0,0.0,99,0.00,,,0.00,Wunderground v.1.15,2013-06-30 05:00:00,
2013-06-30 01:10:00,71.2,70.9,29.64,WSW,253,0.0,0.0,99,0.00,,,0.00,Wunderground v.1.15,2013-06-30 05:10:00,
2013-06-30 01:15:00,71.2,70.9,29.64,WSW,253,0.0,0.0,99,0.00,,,0.00,Wunderground v.1.15,2013-06-30 05:15:00,
2013-06-30 01:20:00,71.2,70.9,29.64,WSW,253,0.0,0.0,99,0.00,,,0.00,Wunderground v.1.15,2013-06-30 05:20:00,
2013-06-30 01:25:00,71.2,70.9,29.64,WSW,253,0.0,0.0,99,0.00,,,0.00,Wunderground v.1.15,2013-06-30 05:25:00,
2013-06-30 01:30:00,71.2,70.9,29.64,WSW,253,0.0,0.0,99,0.00,,,0.00,Wunderground v.1.15,2013-06-30 05:30:00,
2013-06-30 01:35:00,71.2,70.9,29.64,WSW,251,0.0,0.0,99,0.00,,,0.00,Wunderground v.1.15,2013-06-30 05:35:00,
2013-06-30 01:45:00,71.3,71.0,29.64,WSW,251,0.0,0.0,99,0.00,,,0.00,Wunderground v.1.15,2013-06-30 05:45:00,
2013-06-30 01:50:00,71.3,71.0,29.64,WSW,250,0.0,0.0,99,0.00,,,0.00,Wunderground v.1.15,2013-06-30 05:50:00,
2013-06-30 01:55:00,71.3,71.0,29.64,WSW,250,0.0,0.0,99,0.00,,,0.00,Wunderground v.1.15,2013-06-30 05:55:00,
2013-06-30 02:10:00,71.3,71.0,29.64,SW,226,0.0,2.0,99,0.00,,,0.00,Wunderground v.1.15,2013-06-30 06:10:00,
2013-06-30 02:20:00,71.3,71.0,29.65,SW,218,1.0,1.0,99,0.00,,,0.00,Wunderground v.1.15,2013-06-30 06:20:00,
2013-06-30 02:25:00,71.3,71.3,29.65,SW,219,0.0,1.0,100,0.00,,,0.00,Wunderground v.1.15,2013-06-30 06:25:00,
2013-06-30 02:30:00,71.2,71.2,29.65,SW,220,0.0,0.0,100,0.00,,,0.00,Wunderground v.1.15,2013-06-30 06:30:00,
2013-06-30 02:40:00,71.2,71.2,29.65,SW,219,0.0,0.0,100,0.00,,,0.00,Wunderground v.1.15,2013-06-30 06:40:00,
2013-06-30 02:45:00,71.2,71.2,29.65,SW,221,0.0,0.0,100,0.00,,,0.00,Wunderground v.1.15,2013-06-30 06:45:00,
2013-06-30 02:50:00,71.2,71.2,29.65,SW,220,0.0,0.0,100,0.00,,,0.00,Wunderground v.1.15,2013-06-30 06:50:00,
2013-06-30 03:00:00,71.2,71.2,29.65,SW,220,0.0,0.0,100,0.00,,,0.00,Wunderground v.1.15,2013-06-30 07:00:00,
2013-06-30 03:10:00,71.2,71.2,29.65,SW,219,0.0,0.0,100,0.00,,,0.00,Wunderground v.1.15,2013-06-30 07:10:00,
2013-06-30 03:20:00,71.2,71.2,29.65,SW,219,0.0,0.0,100,0.00,,,0.00,Wunderground v.1.15,2013-06-30 07:20:00,
2013-06-30 03:25:00,71.2,71.2,29.65,SW,218,0.0,0.0,100,0.00,,,0.00,Wunderground v.1.15,2013-06-30 07:25:00,
2013-06-30 03:30:00,71.1,71.1,29.65,SW,218,0.0,0.0,100,0.00,,,0.00,Wunderground v.1.15,2013-06-30 07:30:00,
2013-06-30 03:40:00,71.1,71.1,29.65,SW,219,0.0,3.0,100,0.00,,,0.00,Wunderground v.1.15,2013-06-30 07:40:00,
2013-06-30 03:45:00,71.1,71.1,29.65,SW,218,0.0,3.0,100,0.00,,,0.00,Wunderground v.1.15,2013-06-30 07:45:00,
2013-06-30 03:50:00,71.1,71.1,29.65,SW,219,0.0,0.0,100,0.00,,,0.00,Wunderground v.1.15,2013-06-30 07:50:00,
2013-06-30 04:00:00,71.1,71.1,29.65,SW,218,0.0,0.0,100,0.00,,,0.00,Wunderground v.1.15,2013-06-30 08:00:00,
2013-06-30 04:10:00,71.1,71.1,29.65,SW,219,0.0,0.0,100,0.00,,,0.00,Wunderground v.1.15,2013-06-30 08:10:00,
2013-06-30 04:15:00,71.1,71.1,29.65,SW,219,0.0,0.0,100,0.00,,,0.00,Wunderground v.1.15,2013-06-30 08:15:00,
2013-06-30 04:20:00,71.1,71.1,29.65,SW,219,0.0,0.0,100,0.00,,,0.00,Wunderground v.1.15,2013-06-30 08:20:00,
2013-06-30 04:25:00,71.0,71.0,29.65,SW,219,0.0,0.0,100,0.00,,,0.00,Wunderground v.1.15,2013-06-30 08:25:00,
2013-06-30 04:35:00,71.0,71.0,29.66,SW,219,0.0,0.0,100,0.00,,,0.00,Wunderground v.1.15,2013-06-30 08:35:00,
2013-06-30 04:40:00,71.0,71.0,29.66,SW,219,0.0,0.0,100,0.00,,,0.00,Wunderground v.1.15,2013-06-30 08:40:00,
2013-06-30 04:50:00,70.9,70.9,29.66,SW,219,0.0,0.0,100,0.00,,,0.00,Wunderground v.1.15,2013-06-30 08:50:00,
2013-06-30 04:55:00,70.9,70.9,29.66,SW,218,0.0,0.0,100,0.00,,,0.00,Wunderground v.1.15,2013-06-30 08:55:00,
2013-06-30 05:00:00,70.9,70.9,29.67,SW,219,0.0,0.0,100,0.00,,,0.00,Wunderground v.1.15,2013-06-30 09:00:00,
2013-06-30 05:10:00,70.9,70.9,29.67,SW,218,0.0,0.0,100,0.00,,,0.00,Wunderground v.1.15,2013-06-30 09:10:00,
2013-06-30 05:15:00,70.9,70.9,29.67,SW,218,0.0,0.0,100,0.00,,,0.00,Wunderground v.1.15,2013-06-30 09:15:00,
2013-06-30 05:25:00,70.9,70.9,29.67,SW,219,0.0,0.0,100,0.00,,,0.00,Wunderground v.1.15,2013-06-30 09:25:00,
2013-06-30 05:30:00,70.9,70.9,29.68,SW,219,0.0,0.0,100,0.00,,,0.00,Wunderground v.1.15,2013-06-30 09:30:00,
2013-06-30 05:40:00,70.9,70.9,29.68,SW,218,0.0,0.0,100,0.00,,,0.00,Wunderground v.1.15,2013-06-30 09:40:00,
2013-06-30 05:45:00,71.0,71.0,29.68,SW,218,0.0,0.0,100,0.00,,,0.00,Wunderground v.1.15,2013-06-30 09:45:00,
2013-06-30 05:55:00,71.0,71.0,29.69,SW,218,0.0,0.0,100,0.00,,,0.00,Wunderground v.1.15,2013-06-30 09:55:00,
2013-06-30 06:00:00,70.9,70.9,29.69,SW,218,0.0,0.0,100,0.00,,,0.00,Wunderground v.1.15,2013-06-30 10:00:00,
2013-06-30 06:10:00,70.9,70.9,29.69,SW,219,0.0,0.0,100,0.00,,,0.00,Wunderground v.1.15,2013-06-30 10:10:00,
2013-06-30 06:15:00,70.8,70.8,29.70,SW,219,0.0,2.0,100,0.00,,,0.00,Wunderground v.1.15,2013-06-30 10:15:00,
2013-06-30 06:25:00,70.9,70.9,29.70,SW,219,0.0,0.0,100,0.00,,,0.00,Wunderground v.1.15,2013-06-30 10:25:00,
2013-06-30 06:30:00,70.9,70.9,29.70,SW,219,0.0,0.0,100,0.00,,,0.00,Wunderground v.1.15,2013-06-30 10:30:00,
2013-06-30 06:40:00,71.0,71.0,29.70,SW,219,0.0,0.0,100,0.00,,,0.00,Wunderground v.1.15,2013-06-30 10:40:00,
2013-06-30 06:45:00,71.0,71.0,29.71,SW,219,0.0,0.0,100,0.00,,,0.00,Wunderground v.1.15,2013-06-30 10:45:00,
2013-06-30 06:50:00,71.0,71.0,29.71,SW,219,0.0,0.0,100,0.00,,,0.00,Wunderground v.1.15,2013-06-30 10:50:00,
2013-06-30 06:55:00,71.0,71.0,29.71,SW,218,0.0,0.0,100,0.00,,,0.00,Wunderground v.1.15,2013-06-30 10:55:00,
2013-06-30 07:10:00,71.1,71.1,29.72,SW,219,0.0,0.0,100,0.00,,,0.00,Wunderground v.1.15,2013-06-30 11:10:00,
2013-06-30 07:20:00,71.2,71.2,29.72,SW,219,0.0,0.0,100,0.00,,,0.00,Wunderground v.1.15,2013-06-30 11:20:00,
2013-06-30 07:25:00,71.3,71.3,29.72,SW,219,0.0,0.0,100,0.00,,,0.00,Wunderground v.1.15,2013-06-30 11:25:00,
2013-06-30 07:35:00,71.5,71.5,29.73,SW,219,0.0,0.0,100,0.00,,,0.00,Wunderground v.1.15,2013-06-30 11:35:00,
2013-06-30 07:40:00,71.7,71.7,29.73,SW,219,0.0,0.0,100,0.00,,,0.00,Wunderground v.1.15,2013-06-30 11:40:00,
2013-06-30 07:45:00,71.8,71.8,29.73,SW,219,0.0,0.0,100,0.00,,,0.00,Wunderground v.1.15,2013-06-30 11:45:00,
2013-06-30 07:55:00,72.0,72.0,29.74,SW,219,0.0,0.0,100,0.00,,,0.00,Wunderground v.1.15,2013-06-30 11:55:00,
2013-06-30 08:00:00,72.1,72.1,29.74,SW,219,0.0,0.0,100,0.00,,,0.00,Wunderground v.1.15,2013-06-30 12:00:00,
2013-06-30 08:10:00,72.4,72.1,29.74,SW,219,0.0,0.0,99,0.00,,,0.00,Wunderground v.1.15,2013-06-30 12:10:00,
2013-06-30 08:15:00,72.6,72.3,29.74,SW,219,0.0,0.0,99,0.00,,,0.00,Wunderground v.1.15,2013-06-30 12:15:00,
2013-06-30 08:20:00,72.8,72.5,29.74,SW,219,0.0,0.0,99,0.00,,,0.00,Wunderground v.1.15,2013-06-30 12:20:00,
2013-06-30 08:30:00,73.4,73.1,29.74,SW,218,0.0,0.0,99,0.00,,,0.00,Wunderground v.1.15,2013-06-30 12:30:00,
2013-06-30 08:35:00,73.7,73.1,29.74,SW,218,0.0,0.0,98,0.00,,,0.00,Wunderground v.1.15,2013-06-30 12:35:00,
2013-06-30 08:45:00,74.3,73.4,29.74,SW,219,0.0,0.0,97,0.00,,,0.00,Wunderground v.1.15,2013-06-30 12:45:00,
2013-06-30 08:50:00,74.7,73.5,29.74,SW,218,0.0,0.0,96,0.00,,,0.00,Wunderground v.1.15,2013-06-30 12:50:00,
2013-06-30 08:55:00,75.1,73.9,29.74,SW,221,0.0,0.0,96,0.00,,,0.00,Wunderground v.1.15,2013-06-30 12:55:00,
2013-06-30 09:00:00,75.5,74.0,29.74,SW,221,0.0,0.0,95,0.00,,,0.00,Wunderground v.1.15,2013-06-30 13:00:00,
2013-06-30 09:10:00,76.3,74.1,29.74,NW,309,0.0,0.0,93,0.00,,,0.00,Wunderground v.1.15,2013-06-30 13:10:00,
2013-06-30 09:15:00,76.7,74.2,29.74,NW,309,0.0,0.0,92,0.00,,,0.00,Wunderground v.1.15,2013-06-30 13:15:00,
2013-06-30 09:25:00,77.7,74.9,29.74,WNW,294,0.0,0.0,91,0.00,,,0.00,Wunderground v.1.15,2013-06-30 13:25:00,
2013-06-30 09:30:00,78.4,75.2,29.74,SSW,209,0.0,3.0,90,0.00,,,0.00,Wunderground v.1.15,2013-06-30 13:30:00,
2013-06-30 09:40:00,79.1,74.9,29.74,WNW,296,1.0,1.0,87,0.00,,,0.00,Wunderground v.1.15,2013-06-30 13:40:00,
2013-06-30 09:45:00,79.4,75.5,29.74,WNW,296,0.0,1.0,88,0.00,,,0.00,Wunderground v.1.15,2013-06-30 13:45:00,
2013-06-30 09:55:00,79.6,74.7,29.74,SW,230,0.0,0.0,85,0.00,,,0.00,Wunderground v.1.15,2013-06-30 13:55:00,
2013-06-30 10:00:00,79.6,75.4,29.74,SW,230,0.0,0.0,87,0.00,,,0.00,Wunderground v.1.15,2013-06-30 14:00:00,
2013-06-30 10:10:00,79.3,74.7,29.74,SW,230,0.0,0.0,86,0.00,,,0.00,Wunderground v.1.15,2013-06-30 14:10:00,
2013-06-30 10:15:00,79.2,75.0,29.74,SW,230,0.0,0.0,87,0.00,,,0.00,Wunderground v.1.15,2013-06-30 14:15:00,
2013-06-30 10:20:00,79.3,75.1,29.74,SW,230,0.0,0.0,87,0.00,,,0.00,Wunderground v.1.15,2013-06-30 14:20:00,
2013-06-30 10:30:00,79.3,74.7,29.74,SSW,208,1.0,1.0,86,0.00,,,0.00,Wunderground v.1.15,2013-06-30 14:30:00,
2013-06-30 10:35:00,79.2,74.6,29.74,WSW,239,0.0,1.0,86,0.00,,,0.00,Wunderground v.1.15,2013-06-30 14:35:00,
2013-06-30 10:40:00,79.1,74.9,29.74,WSW,239,0.0,0.0,87,0.00,,,0.00,Wunderground v.1.15,2013-06-30 14:40:00,
2013-06-30 10:45:00,79.0,74.8,29.74,WSW,239,0.0,0.0,87,0.00,,,0.00,Wunderground v.1.15,2013-06-30 14:45:00,
2013-06-30 10:55:00,79.0,74.8,29.75,WSW,239,0.0,0.0,87,0.00,,,0.00,Wunderground v.1.15,2013-06-30 14:55:00,
2013-06-30 11:10:00,79.1,74.5,29.75,West,265,0.0,0.0,86,0.00,,,0.00,Wunderground v.1.15,2013-06-30 15:10:00,
2013-06-30 11:20:00,79.3,75.1,29.75,WSW,254,0.0,0.0,87,0.00,,,0.00,Wunderground v.1.15,2013-06-30 15:20:00,
2013-06-30 11:25:00,79.3,74.7,29.75,South,174,0.0,0.0,86,0.00,,,0.00,Wunderground v.1.15,2013-06-30 15:25:00,
2013-06-30 11:30:00,79.3,74.7,29.75,West,271,0.0,0.0,86,0.00,,,0.00,Wunderground v.1.15,2013-06-30 15:30:00,
2013-06-30 11:40:00,79.8,74.9,29.75,West,259,0.0,0.0,85,0.00,,,0.00,Wunderground v.1.15,2013-06-30 15:40:00,
2013-06-30 11:50:00,80.5,75.6,29.75,WSW,240,0.0,0.0,85,0.00,,,0.00,Wunderground v.1.15,2013-06-30 15:50:00,
2013-06-30 11:55:00,80.9,75.6,29.75,WNW,283,1.0,1.0,84,0.00,,,0.00,Wunderground v.1.15,2013-06-30 15:55:00,
2013-06-30 12:00:00,81.1,75.8,29.75,SSW,210,1.0,1.0,84,0.00,,,0.00,Wunderground v.1.15,2013-06-30 16:00:00,
2013-06-30 12:10:00,81.3,75.6,29.75,SW,233,1.0,2.0,83,0.00,,,0.00,Wunderground v.1.15,2013-06-30 16:10:00,
2013-06-30 12:15:00,81.0,75.0,29.75,SW,233,0.0,2.0,82,0.00,,,0.00,Wunderground v.1.15,2013-06-30 16:15:00,
2013-06-30 12:25:00,81.2,75.5,29.75,SSW,211,0.0,0.0,83,0.00,,,0.00,Wunderground v.1.15,2013-06-30 16:25:00,
2013-06-30 12:35:00,80.9,75.2,29.75,SSW,196,0.0,0.0,83,0.00,,,0.00,Wunderground v.1.15,2013-06-30 16:35:00,
2013-06-30 12:40:00,80.7,75.1,29.75,SSW,196,0.0,0.0,83,0.00,,,0.00,Wunderground v.1.15,2013-06-30 16:40:00,
2013-06-30 12:45:00,80.6,75.3,29.75,SSW,195,0.0,0.0,84,0.00,,,0.00,Wunderground v.1.15,2013-06-30 16:45:00,
2013-06-30 12:50:00,80.5,75.2,29.75,SSW,195,0.0,0.0,84,0.00,,,0.00,Wunderground v.1.15,2013-06-30 16:50:00,
2013-06-30 13:00:00,80.2,74.6,29.75,SSW,195,0.0,0.0,83,0.00,,,0.00,Wunderground v.1.15,2013-06-30 17:00:00,
2013-06-30 13:10:00,80.1,75.2,29.75,SSW,195,0.0,0.0,85,0.00,,,0.00,Wunderground v.1.15,2013-06-30 17:10:00,
2013-06-30 13:15:00,80.0,75.4,29.75,South,187,0.0,2.0,86,0.00,,,0.00,Wunderground v.1.15,2013-06-30 17:15:00,
2013-06-30 13:20:00,79.8,75.2,29.75,South,187,0.0,0.0,86,0.00,,,0.00,Wunderground v.1.15,2013-06-30 17:20:00,
2013-06-30 13:30:00,80.4,75.5,29.74,WSW,252,0.0,0.0,85,0.00,,,0.00,Wunderground v.1.15,2013-06-30 17:30:00,
2013-06-30 13:35:00,80.8,75.9,29.74,WSW,252,0.0,0.0,85,0.00,,,0.00,Wunderground v.1.15,2013-06-30 17:35:00,
2013-06-30 13:45:00,80.9,75.6,29.74,WSW,250,0.0,3.0,84,0.00,,,0.00,Wunderground v.1.15,2013-06-30 17:45:00,
2013-06-30 13:50:00,80.6,75.0,29.75,WSW,250,0.0,0.0,83,0.00,,,0.00,Wunderground v.1.15,2013-06-30 17:50:00,
2013-06-30 14:00:00,80.2,74.9,29.75,WSW,250,0.0,0.0,84,0.00,,,0.00,Wunderground v.1.15,2013-06-30 18:00:00,
2013-06-30 14:10:00,79.9,75.0,29.75,WSW,250,0.0,0.0,85,0.00,,,0.00,Wunderground v.1.15,2013-06-30 18:10:00,
2013-06-30 14:15:00,79.9,75.0,29.75,WSW,250,0.0,0.0,85,0.00,,,0.00,Wunderground v.1.15,2013-06-30 18:15:00,
2013-06-30 14:20:00,79.8,74.9,29.75,South,180,0.0,1.0,85,0.00,,,0.00,Wunderground v.1.15,2013-06-30 18:20:00,
2013-06-30 14:25:00,79.4,74.8,29.75,SE,145,1.0,1.0,86,0.00,,,0.00,Wunderground v.1.15,2013-06-30 18:25:00,
2013-06-30 14:35:00,79.0,74.8,29.75,SE,146,0.0,1.0,87,0.00,,,0.00,Wunderground v.1.15,2013-06-30 18:35:00,
2013-06-30 14:40:00,78.9,74.7,29.76,SE,146,0.0,0.0,87,0.00,,,0.00,Wunderground v.1.15,2013-06-30 18:40:00,
2013-06-30 14:50:00,78.5,74.3,29.76,ESE,119,0.0,0.0,87,0.00,,,0.00,Wunderground v.1.15,2013-06-30 18:50:00,
2013-06-30 14:55:00,78.4,74.5,29.75,ESE,119,0.0,0.0,88,0.00,,,0.00,Wunderground v.1.15,2013-06-30 18:55:00,
2013-06-30 15:10:00,77.5,74.3,29.76,ESE,119,0.0,0.0,90,0.00,,,0.00,Wunderground v.1.15,2013-06-30 19:10:00,
2013-06-30 15:20:00,77.5,74.3,29.75,WNW,291,0.0,0.0,90,0.00,,,0.00,Wunderground v.1.15,2013-06-30 19:20:00,
2013-06-30 15:25:00,77.4,73.9,29.75,WNW,291,0.0,0.0,89,0.00,,,0.00,Wunderground v.1.15,2013-06-30 19:25:00,
2013-06-30 15:35:00,77.3,73.8,29.75,WNW,291,0.0,0.0,89,0.00,,,0.00,Wunderground v.1.15,2013-06-30 19:35:00,
2013-06-30 15:40:00,77.3,74.1,29.76,WNW,291,0.0,0.0,90,0.00,,,0.00,Wunderground v.1.15,2013-06-30 19:40:00,
2013-06-30 15:50:00,76.9,74.1,29.76,WNW,290,0.0,1.0,91,0.00,,,0.00,Wunderground v.1.15,2013-06-30 19:50:00,
2013-06-30 15:55:00,76.6,74.1,29.76,WNW,290,0.0,1.0,92,0.00,,,0.00,Wunderground v.1.15,2013-06-30 19:55:00,
2013-06-30 16:10:00,76.0,74.1,29.77,East,87,0.0,0.0,94,0.00,,,0.00,Wunderground v.1.15,2013-06-30 20:10:00,
2013-06-30 16:15:00,75.8,73.9,29.78,East,88,0.0,0.0,94,0.00,,,0.00,Wunderground v.1.15,2013-06-30 20:15:00,
2013-06-30 16:25:00,75.4,73.9,29.78,East,88,0.0,0.0,95,0.00,,,0.00,Wunderground v.1.15,2013-06-30 20:25:00,
2013-06-30 16:35:00,75.0,73.5,29.78,East,96,0.0,1.0,95,0.00,,,0.00,Wunderground v.1.15,2013-06-30 20:35:00,
2013-06-30 16:40:00,74.9,73.7,29.78,East,96,0.0,0.0,96,0.00,,,0.00,Wunderground v.1.15,2013-06-30 20:40:00,
2013-06-30 16:50:00,74.6,73.4,29.78,East,96,0.0,0.0,96,0.00,,,0.00,Wunderground v.1.15,2013-06-30 20:50:00,
2013-06-30 16:55:00,74.5,73.6,29.78,East,96,0.0,0.0,97,0.00,,,0.00,Wunderground v.1.15,2013-06-30 20:55:00,
2013-06-30 17:00:00,74.3,73.4,29.78,East,96,0.0,0.0,97,0.00,,,0.00,Wunderground v.1.15,2013-06-30 21:00:00,
2013-06-30 17:10:00,74.2,73.3,29.79,East,96,0.0,0.0,97,0.00,,,0.00,Wunderground v.1.15,2013-06-30 21:10:00,
2013-06-30 17:15:00,74.1,73.2,29.79,East,96,0.0,0.0,97,0.00,,,0.00,Wunderground v.1.15,2013-06-30 21:15:00,
2013-06-30 17:20:00,73.9,73.0,29.79,East,96,0.0,0.0,97,0.00,,,0.00,Wunderground v.1.15,2013-06-30 21:20:00,
2013-06-30 17:30:00,73.7,73.1,29.79,East,96,0.0,0.0,98,0.00,,,0.00,Wunderground v.1.15,2013-06-30 21:30:00,
2013-06-30 17:35:00,73.7,73.1,29.80,East,96,0.0,0.0,98,0.00,,,0.00,Wunderground v.1.15,2013-06-30 21:35:00,
2013-06-30 17:45:00,73.7,73.1,29.79,East,96,0.0,0.0,98,0.00,,,0.00,Wunderground v.1.15,2013-06-30 21:45:00,
2013-06-30 17:50:00,73.6,73.0,29.80,East,96,0.0,0.0,98,0.00,,,0.00,Wunderground v.1.15,2013-06-30 21:50:00,
2013-06-30 17:55:00,73.6,73.0,29.79,East,96,0.0,0.0,98,0.00,,,0.00,Wunderground v.1.15,2013-06-30 21:55:00,
2013-06-30 18:10:00,73.5,72.9,29.79,East,96,0.0,0.0,98,0.00,,,0.00,Wunderground v.1.15,2013-06-30 22:10:00,
2013-06-30 18:20:00,73.4,72.8,29.79,East,96,0.0,0.0,98,0.00,,,0.00,Wunderground v.1.15,2013-06-30 22:20:00,
2013-06-30 18:25:00,73.4,72.8,29.79,East,96,0.0,0.0,98,0.00,,,0.00,Wunderground v.1.15,2013-06-30 22:25:00,
2013-06-30 18:30:00,73.3,72.7,29.79,East,96,0.0,0.0,98,0.00,,,0.00,Wunderground v.1.15,2013-06-30 22:30:00,
2013-06-30 18:35:00,73.3,72.7,29.79,East,96,0.0,0.0,98,0.00,,,0.00,Wunderground v.1.15,2013-06-30 22:35:00,
2013-06-30 18:45:00,73.4,72.8,29.80,East,96,0.0,0.0,98,0.00,,,0.00,Wunderground v.1.15,2013-06-30 22:45:00,
2013-06-30 18:50:00,73.5,72.9,29.80,East,96,0.0,0.0,98,0.00,,,0.00,Wunderground v.1.15,2013-06-30 22:50:00,
2013-06-30 19:00:00,73.7,73.1,29.81,East,96,0.0,0.0,98,0.00,,,0.00,Wunderground v.1.15,2013-06-30 23:00:00,
2013-06-30 19:10:00,73.7,73.1,29.80,East,96,0.0,0.0,98,0.00,,,0.00,Wunderground v.1.15,2013-06-30 23:10:00,
2013-06-30 19:20:00,73.7,72.8,29.80,East,96,0.0,0.0,97,0.00,,,0.00,Wunderground v.1.15,2013-06-30 23:20:00,
2013-06-30 19:25:00,73.6,72.7,29.80,East,96,0.0,0.0,97,0.00,,,0.00,Wunderground v.1.15,2013-06-30 23:25:00,
2013-06-30 19:30:00,73.6,72.7,29.80,East,96,0.0,0.0,97,0.00,,,0.00,Wunderground v.1.15,2013-06-30 23:30:00,
2013-06-30 19:40:00,73.5,72.6,29.80,East,96,0.0,0.0,97,0.00,,,0.00,Wunderground v.1.15,2013-06-30 23:40:00,
2013-06-30 19:45:00,73.4,72.5,29.80,East,96,0.0,0.0,97,0.00,,,0.00,Wunderground v.1.15,2013-06-30 23:45:00,
2013-06-30 19:50:00,73.4,72.5,29.81,East,96,0.0,0.0,97,0.00,,,0.00,Wunderground v.1.15,2013-06-30 23:50:00,
2013-06-30 20:00:00,73.3,72.7,29.80,East,96,0.0,0.0,98,0.00,,,0.00,Wunderground v.1.15,2013-07-01 00:00:00,
2013-06-30 20:10:00,73.2,72.6,29.81,East,96,0.0,0.0,98,0.00,,,0.00,Wunderground v.1.15,2013-07-01 00:10:00,
2013-06-30 20:15:00,73.1,72.5,29.81,East,96,0.0,0.0,98,1.44,,,0.10,Wunderground v.1.15,2013-07-01 00:15:00,
2013-06-30 20:20:00,72.9,72.3,29.81,North,9,0.0,0.0,98,0.36,,,0.16,Wunderground v.1.15,2013-07-01 00:20:00,
2013-06-30 20:25:00,72.8,72.5,29.81,North,9,0.0,0.0,99,0.09,,,0.16,Wunderground v.1.15,2013-07-01 00:25:00,
2013-06-30 20:35:00,72.5,72.2,29.81,North,9,0.0,0.0,99,0.04,,,0.16,Wunderground v.1.15,2013-07-01 00:35:00,
2013-06-30 20:40:00,72.4,72.1,29.81,North,9,0.0,0.0,99,0.00,,,0.16,Wunderground v.1.15,2013-07-01 00:40:00,
2013-06-30 20:45:00,72.3,72.0,29.81,North,9,0.0,0.0,99,0.00,,,0.16,Wunderground v.1.15,2013-07-01 00:45:00,
2013-06-30 20:55:00,72.2,72.2,29.81,North,9,0.0,0.0,100,0.00,,,0.16,Wunderground v.1.15,2013-07-01 00:55:00,
2013-06-30 21:00:00,72.2,72.2,29.81,North,9,0.0,0.0,100,0.00,,,0.16,Wunderground v.1.15,2013-07-01 01:00:00,
2013-06-30 21:10:00,72.1,72.1,29.81,North,9,0.0,0.0,100,0.00,,,0.16,Wunderground v.1.15,2013-07-01 01:10:00,
2013-06-30 21:15:00,72.0,72.0,29.81,North,9,0.0,0.0,100,0.00,,,0.16,Wunderground v.1.15,2013-07-01 01:15:00,
2013-06-30 21:20:00,71.9,71.9,29.81,North,9,0.0,0.0,100,0.00,,,0.16,Wunderground v.1.15,2013-07-01 01:20:00,
2013-06-30 21:25:00,71.9,71.9,29.82,North,9,0.0,0.0,100,0.00,,,0.16,Wunderground v.1.15,2013-07-01 01:25:00,
2013-06-30 21:30:00,71.9,71.9,29.82,North,9,0.0,0.0,100,0.00,,,0.16,Wunderground v.1.15,2013-07-01 01:30:00,
2013-06-30 21:40:00,71.9,71.9,29.82,North,9,0.0,0.0,100,0.00,,,0.16,Wunderground v.1.15,2013-07-01 01:40:00,
2013-06-30 21:45:00,71.9,71.9,29.83,North,9,0.0,0.0,100,0.00,,,0.16,Wunderground v.1.15,2013-07-01 01:45:00,
2013-06-30 21:55:00,71.8,71.8,29.83,North,9,0.0,0.0,100,0.00,,,0.16,Wunderground v.1.15,2013-07-01 01:55:00,
2013-06-30 22:00:00,71.8,71.8,29.83,North,9,0.0,0.0,100,0.00,,,0.16,Wunderground v.1.15,2013-07-01 02:00:00,
2013-06-30 22:10:00,71.8,71.8,29.83,North,9,0.0,0.0,100,0.00,,,0.16,Wunderground v.1.15,2013-07-01 02:10:00,
2013-06-30 22:15:00,71.8,71.8,29.83,North,9,0.0,0.0,100,0.00,,,0.16,Wunderground v.1.15,2013-07-01 02:15:00,
2013-06-30 22:20:00,71.7,71.7,29.83,North,9,0.0,0.0,100,0.00,,,0.16,Wunderground v.1.15,2013-07-01 02:20:00,
2013-06-30 22:30:00,71.7,71.7,29.83,North,9,0.0,0.0,100,0.00,,,0.16,Wunderground v.1.15,2013-07-01 02:30:00,
2013-06-30 22:35:00,71.6,71.6,29.83,North,9,0.0,0.0,100,0.00,,,0.16,Wunderground v.1.15,2013-07-01 02:35:00,
2013-06-30 22:40:00,71.5,71.5,29.83,North,9,0.0,0.0,100,0.00,,,0.16,Wunderground v.1.15,2013-07-01 02:40:00,
2013-06-30 22:50:00,71.5,71.5,29.83,North,9,0.0,0.0,100,0.00,,,0.16,Wunderground v.1.15,2013-07-01 02:50:00,
2013-06-30 22:55:00,71.4,71.4,29.83,North,9,0.0,0.0,100,0.00,,,0.16,Wunderground v.1.15,2013-07-01 02:55:00,
2013-06-30 23:10:00,71.3,71.3,29.83,North,9,0.0,0.0,100,0.00,,,0.16,Wunderground v.1.15,2013-07-01 03:10:00,
2013-06-30 23:15:00,71.3,71.3,29.83,North,9,0.0,0.0,100,0.00,,,0.16,Wunderground v.1.15,2013-07-01 03:15:00,
2013-06-30 23:25:00,71.3,71.3,29.84,North,9,0.0,0.0,100,0.00,,,0.16,Wunderground v.1.15,2013-07-01 03:25:00,
2013-06-30 23:30:00,71.3,71.3,29.84,North,9,0.0,0.0,100,0.00,,,0.16,Wunderground v.1.15,2013-07-01 03:30:00,
2013-06-30 23:35:00,71.3,71.3,29.84,North,9,0.0,0.0,100,0.00,,,0.16,Wunderground v.1.15,2013-07-01 03:35:00,
2013-06-30 23:40:00,71.3,71.3,29.84,North,9,0.0,0.0,100,0.00,,,0.16,Wunderground v.1.15,2013-07-01 03:40:00,
2013-06-30 23:50:00,71.3,71.3,29.84,WSW,242,0.0,0.0,100,0.00,,,0.16,Wunderground v.1.15,2013-07-01 03:50:00,
2013-06-30 23:55:00,71.3,71.3,29.84,WSW,241,0.0,0.0,100,0.00,,,0.16,Wunderground v.1.15,2013-07-01 03:55:00,